Location: Berkeley
(37.8716°N, 122.2727°W)
Time: 07:15:06
(UTC-07:00)

BlueWalker 3 - Pass Details

Date: 15 May 2026
Orbit: 447 x 457 km, 53.2° (Epoch: 5 June)

Event Time Altitude Azimuth Distance (km) Brightness Sun altitude
Exits shadow 02:02:54 13° 3° (N) 1,381 4.9 -31.6°
Drops below altitude 10° 02:03:44 10° 15° (NNE) 1,573 5.3 -31.6°
Sets 02:06:27 0° 37° (NE) 2,448 6.4 -31.4°
